Time,TemperatureF,DewpointF,PressureIn,WindDirection,WindDirectionDegrees,WindSpeedMPH,WindSpeedGustMPH,Humidity,HourlyPrecipIn,Conditions,Clouds,dailyrainin,SoftwareType,DateUTC
2013-02-05 00:00:00,31.1,3.1,27.08,North,0,0.0,0.0,30,0.00,NA,NA,-99.99,wxupload 3.5,2013-02-05 05:00:00,
2013-02-05 00:01:00,31.1,3.1,27.08,North,0,0.0,0.0,30,0.00,NA,NA,-99.99,wxupload 3.5,2013-02-05 05:01:00,
2013-02-05 00:06:00,31.3,3.2,27.08,North,0,0.0,0.0,30,0.00,NA,NA,-99.99,wxupload 3.5,2013-02-05 05:06:00,
2013-02-05 00:12:00,31.3,3.2,27.08,North,0,0.0,0.0,30,0.00,NA,NA,-99.99,wxupload 3.5,2013-02-05 05:12:00,
2013-02-05 00:17:00,31.3,3.2,27.08,North,0,0.0,0.0,30,0.00,NA,NA,-99.99,wxupload 3.5,2013-02-05 05:17:00,
2013-02-05 00:24:00,31.6,3.5,27.08,North,0,0.0,0.0,30,0.00,NA,NA,-99.99,wxupload 3.5,2013-02-05 05:24:00,
2013-02-05 00:29:00,32.0,3.9,27.08,North,0,0.0,0.0,30,0.00,NA,NA,-99.99,wxupload 3.5,2013-02-05 05:29:00,
2013-02-05 00:36:00,32.2,4.7,27.08,North,0,0.0,0.0,31,0.00,NA,NA,-99.99,wxupload 3.5,2013-02-05 05:36:00,
2013-02-05 00:42:00,32.4,4.2,27.08,North,0,0.0,0.0,30,0.00,NA,NA,-99.99,wxupload 3.5,2013-02-05 05:42:00,
2013-02-05 00:47:00,32.4,4.2,27.08,North,0,0.0,0.0,30,0.00,NA,NA,-99.99,wxupload 3.5,2013-02-05 05:47:00,
2013-02-05 00:54:00,32.4,4.2,27.08,North,0,0.0,0.0,30,0.00,NA,NA,-99.99,wxupload 3.5,2013-02-05 05:54:00,
2013-02-05 00:59:00,32.5,4.3,27.08,North,0,0.0,0.0,30,0.00,NA,NA,-99.99,wxupload 3.5,2013-02-05 05:59:00,
2013-02-05 01:06:00,32.5,4.3,27.08,North,0,0.0,0.0,30,0.00,NA,NA,-99.99,wxupload 3.5,2013-02-05 06:06:00,
2013-02-05 01:11:00,32.5,4.3,27.08,North,0,0.0,0.0,30,0.00,NA,NA,-99.99,wxupload 3.5,2013-02-05 06:11:00,
2013-02-05 01:18:00,32.7,4.5,27.08,North,0,0.0,0.0,30,0.00,NA,NA,-99.99,wxupload 3.5,2013-02-05 06:18:00,
2013-02-05 01:24:00,32.7,4.5,27.08,North,0,0.0,0.0,30,0.00,NA,NA,-99.99,wxupload 3.5,2013-02-05 06:24:00,
2013-02-05 01:29:00,32.7,4.5,27.08,North,0,0.0,0.0,30,0.00,NA,NA,-99.99,wxupload 3.5,2013-02-05 06:29:00,
2013-02-05 01:36:00,32.7,4.5,27.08,North,0,0.0,0.0,30,0.00,NA,NA,-99.99,wxupload 3.5,2013-02-05 06:36:00,
2013-02-05 01:41:00,32.7,4.5,27.08,North,0,0.0,0.0,30,0.00,NA,NA,-99.99,wxupload 3.5,2013-02-05 06:41:00,
2013-02-05 01:48:00,32.9,4.7,27.08,North,0,0.0,0.0,30,0.00,NA,NA,-99.99,wxupload 3.5,2013-02-05 06:48:00,
2013-02-05 01:54:00,32.9,4.7,27.08,North,0,0.0,0.0,30,0.00,NA,NA,-99.99,wxupload 3.5,2013-02-05 06:54:00,
2013-02-05 02:00:00,32.9,4.7,27.08,North,0,0.0,0.0,30,0.00,NA,NA,-99.99,wxupload 3.5,2013-02-05 07:00:00,
2013-02-05 02:06:00,33.1,4.8,27.08,North,0,0.0,0.0,30,0.00,NA,NA,-99.99,wxupload 3.5,2013-02-05 07:06:00,
2013-02-05 02:11:00,33.1,4.8,27.08,North,0,0.0,0.0,30,0.00,NA,NA,-99.99,wxupload 3.5,2013-02-05 07:11:00,
2013-02-05 02:18:00,33.3,5.0,27.08,North,0,0.0,0.0,30,0.00,NA,NA,-99.99,wxupload 3.5,2013-02-05 07:18:00,
2013-02-05 02:23:00,33.3,5.0,27.08,North,0,0.0,0.0,30,0.00,NA,NA,-99.99,wxupload 3.5,2013-02-05 07:23:00,
2013-02-05 02:30:00,33.4,3.6,27.08,North,0,0.0,0.0,28,0.00,NA,NA,-99.99,wxupload 3.5,2013-02-05 07:30:00,
2013-02-05 02:36:00,33.6,3.8,27.08,North,0,0.0,0.0,28,0.00,NA,NA,-99.99,wxupload 3.5,2013-02-05 07:36:00,
2013-02-05 02:42:00,33.6,3.8,27.08,North,0,0.0,0.0,28,0.00,NA,NA,-99.99,wxupload 3.5,2013-02-05 07:42:00,
2013-02-05 02:48:00,33.6,3.8,27.08,North,0,0.0,0.0,28,0.00,NA,NA,-99.99,wxupload 3.5,2013-02-05 07:48:00,
2013-02-05 02:53:00,33.8,1.4,27.08,North,0,0.0,0.0,25,0.00,NA,NA,-99.99,wxupload 3.5,2013-02-05 07:53:00,
2013-02-05 03:00:00,34.0,1.6,27.08,North,0,0.0,0.0,25,0.00,NA,NA,-99.99,wxupload 3.5,2013-02-05 08:00:00,
2013-02-05 03:05:00,34.0,1.6,27.08,North,0,0.0,0.0,25,0.00,NA,NA,-99.99,wxupload 3.5,2013-02-05 08:05:00,
2013-02-05 03:12:00,34.3,1.9,27.08,North,0,0.0,0.0,25,0.00,NA,NA,-99.99,wxupload 3.5,2013-02-05 08:12:00,
2013-02-05 03:18:00,34.5,2.1,27.08,North,0,0.0,0.0,25,0.00,NA,NA,-99.99,wxupload 3.5,2013-02-05 08:18:00,
2013-02-05 03:24:00,34.5,-0.7,27.08,North,0,0.0,0.0,22,0.00,NA,NA,-99.99,wxupload 3.5,2013-02-05 08:24:00,
2013-02-05 03:30:00,34.7,-0.5,27.08,North,0,0.0,0.0,22,0.00,NA,NA,-99.99,wxupload 3.5,2013-02-05 08:30:00,
2013-02-05 03:35:00,34.5,2.1,27.08,North,0,0.0,0.0,25,0.00,NA,NA,-99.99,wxupload 3.5,2013-02-05 08:35:00,
2013-02-05 03:42:00,34.7,2.2,27.08,North,0,0.0,0.0,25,0.00,NA,NA,-99.99,wxupload 3.5,2013-02-05 08:42:00,
2013-02-05 03:47:00,34.7,2.2,27.08,North,0,0.0,0.0,25,0.00,NA,NA,-99.99,wxupload 3.5,2013-02-05 08:47:00,
2013-02-05 03:54:00,34.7,2.2,27.08,North,0,0.0,0.0,25,0.00,NA,NA,-99.99,wxupload 3.5,2013-02-05 08:54:00,
2013-02-05 04:00:00,34.7,2.2,27.08,North,0,0.0,0.0,25,0.00,NA,NA,-99.99,wxupload 3.5,2013-02-05 09:00:00,
2013-02-05 04:06:00,34.7,2.2,27.08,North,0,0.0,0.0,25,0.00,NA,NA,-99.99,wxupload 3.5,2013-02-05 09:06:00,
2013-02-05 04:12:00,34.9,2.4,27.08,North,0,0.0,0.0,25,0.00,NA,NA,-99.99,wxupload 3.5,2013-02-05 09:12:00,
2013-02-05 04:17:00,34.9,2.4,27.08,North,0,0.0,0.0,25,0.00,NA,NA,-99.99,wxupload 3.5,2013-02-05 09:17:00,
2013-02-05 04:24:00,34.9,2.4,27.08,North,0,0.0,0.0,25,0.00,NA,NA,-99.99,wxupload 3.5,2013-02-05 09:24:00,
2013-02-05 04:29:00,34.9,2.4,27.08,North,0,0.0,0.0,25,0.00,NA,NA,-99.99,wxupload 3.5,2013-02-05 09:29:00,
2013-02-05 04:36:00,34.9,2.4,27.08,North,0,0.0,0.0,25,0.00,NA,NA,-99.99,wxupload 3.5,2013-02-05 09:36:00,
2013-02-05 04:42:00,34.7,2.2,27.08,North,0,0.0,0.0,25,0.00,NA,NA,-99.99,wxupload 3.5,2013-02-05 09:42:00,
2013-02-05 04:48:00,34.3,1.9,27.08,North,0,0.0,0.0,25,0.00,NA,NA,-99.99,wxupload 3.5,2013-02-05 09:48:00,
2013-02-05 04:54:00,34.2,3.4,27.05,North,0,0.0,0.0,27,0.00,NA,NA,-99.99,wxupload 3.5,2013-02-05 09:54:00,
2013-02-05 04:59:00,34.0,3.3,27.05,North,0,0.0,0.0,27,0.00,NA,NA,-99.99,wxupload 3.5,2013-02-05 09:59:00,
2013-02-05 05:06:00,33.8,5.5,27.08,North,0,0.0,0.0,30,0.00,NA,NA,-99.99,wxupload 3.5,2013-02-05 10:06:00,
2013-02-05 05:11:00,33.8,5.5,27.08,North,0,0.0,0.0,30,0.00,NA,NA,-99.99,wxupload 3.5,2013-02-05 10:11:00,
2013-02-05 05:18:00,34.0,6.3,27.08,North,0,0.0,0.0,31,0.00,NA,NA,-99.99,wxupload 3.5,2013-02-05 10:18:00,
2013-02-05 05:24:00,34.0,6.3,27.08,North,0,0.0,0.0,31,0.00,NA,NA,-99.99,wxupload 3.5,2013-02-05 10:24:00,
2013-02-05 05:30:00,33.4,5.9,27.08,North,0,0.0,0.0,31,0.00,NA,NA,-99.99,wxupload 3.5,2013-02-05 10:30:00,
2013-02-05 05:36:00,33.3,5.7,27.08,North,0,0.0,0.0,31,0.00,NA,NA,-99.99,wxupload 3.5,2013-02-05 10:36:00,
2013-02-05 05:41:00,33.1,5.5,27.08,North,0,0.0,0.0,31,0.00,NA,NA,-99.99,wxupload 3.5,2013-02-05 10:41:00,
2013-02-05 05:48:00,33.1,5.5,27.08,North,0,0.0,0.0,31,0.00,NA,NA,-99.99,wxupload 3.5,2013-02-05 10:48:00,
2013-02-05 05:53:00,32.9,5.4,27.08,North,0,0.0,0.0,31,0.00,NA,NA,-99.99,wxupload 3.5,2013-02-05 10:53:00,
2013-02-05 06:00:00,33.1,5.5,27.08,North,0,0.0,0.0,31,0.00,NA,NA,-99.99,wxupload 3.5,2013-02-05 11:00:00,
2013-02-05 06:06:00,33.1,5.5,27.08,North,0,0.0,0.0,31,0.00,NA,NA,-99.99,wxupload 3.5,2013-02-05 11:06:00,
2013-02-05 06:12:00,33.1,5.5,27.08,North,0,0.0,0.0,31,0.00,NA,NA,-99.99,wxupload 3.5,2013-02-05 11:12:00,
2013-02-05 06:18:00,33.3,5.7,27.08,North,0,0.0,0.0,31,0.00,NA,NA,-99.99,wxupload 3.5,2013-02-05 11:18:00,
2013-02-05 06:23:00,33.3,6.4,27.11,North,0,0.0,0.0,32,0.00,NA,NA,-99.99,wxupload 3.5,2013-02-05 11:23:00,
2013-02-05 06:30:00,33.1,6.3,27.11,North,0,0.0,0.0,32,0.00,NA,NA,-99.99,wxupload 3.5,2013-02-05 11:30:00,
2013-02-05 06:35:00,33.1,6.9,27.08,North,0,0.0,0.0,33,0.00,NA,NA,-99.99,wxupload 3.5,2013-02-05 11:35:00,
2013-02-05 06:42:00,33.1,6.9,27.08,North,0,0.0,0.0,33,0.00,NA,NA,-99.99,wxupload 3.5,2013-02-05 11:42:00,
2013-02-05 06:47:00,33.1,8.3,27.08,North,0,0.0,0.0,35,0.00,NA,NA,-99.99,wxupload 3.5,2013-02-05 11:47:00,
2013-02-05 06:54:00,32.9,8.7,27.11,North,0,0.0,0.0,36,0.00,NA,NA,-99.99,wxupload 3.5,2013-02-05 11:54:00,
2013-02-05 07:00:00,32.7,9.2,27.11,North,0,0.0,0.0,37,0.00,NA,NA,-99.99,wxupload 3.5,2013-02-05 12:00:00,
2013-02-05 07:05:00,32.7,9.2,27.11,North,0,0.0,0.0,37,0.00,NA,NA,-99.99,wxupload 3.5,2013-02-05 12:05:00,
2013-02-05 07:12:00,32.9,9.9,27.11,North,0,0.0,0.0,38,0.00,NA,NA,-99.99,wxupload 3.5,2013-02-05 12:12:00,
2013-02-05 07:17:00,32.9,9.9,27.11,North,0,0.0,0.0,38,0.00,NA,NA,-99.99,wxupload 3.5,2013-02-05 12:17:00,
2013-02-05 07:24:00,32.9,10.5,27.11,North,0,0.0,0.0,39,0.00,NA,NA,-99.99,wxupload 3.5,2013-02-05 12:24:00,
2013-02-05 07:29:00,32.9,10.5,27.11,North,0,0.0,0.0,39,0.00,NA,NA,-99.99,wxupload 3.5,2013-02-05 12:29:00,
2013-02-05 07:36:00,32.9,11.1,27.11,North,0,0.0,0.0,40,0.00,NA,NA,-99.99,wxupload 3.5,2013-02-05 12:36:00,
2013-02-05 07:42:00,32.9,11.1,27.11,North,0,0.0,0.0,40,0.00,NA,NA,-99.99,wxupload 3.5,2013-02-05 12:42:00,
2013-02-05 07:47:00,32.9,11.1,27.11,North,0,0.0,0.0,40,0.00,NA,NA,-99.99,wxupload 3.5,2013-02-05 12:47:00,
2013-02-05 07:54:00,33.1,11.3,27.11,North,0,0.0,0.0,40,0.00,NA,NA,-99.99,wxupload 3.5,2013-02-05 12:54:00,
2013-02-05 07:59:00,33.1,11.3,27.11,North,0,0.0,0.0,40,0.00,NA,NA,-99.99,wxupload 3.5,2013-02-05 12:59:00,
2013-02-05 08:06:00,33.1,11.3,27.11,North,0,0.0,0.0,40,0.00,NA,NA,-99.99,wxupload 3.5,2013-02-05 13:06:00,
2013-02-05 08:11:00,33.1,11.3,27.11,North,0,0.0,0.0,40,0.00,NA,NA,-99.99,wxupload 3.5,2013-02-05 13:11:00,
2013-02-05 08:18:00,33.1,11.3,27.11,North,0,0.0,0.0,40,0.00,NA,NA,-99.99,wxupload 3.5,2013-02-05 13:18:00,
2013-02-05 08:24:00,33.1,11.3,27.11,North,0,0.0,0.0,40,0.00,NA,NA,-99.99,wxupload 3.5,2013-02-05 13:24:00,
2013-02-05 08:30:00,33.1,11.3,27.11,North,0,0.0,0.0,40,0.00,NA,NA,-99.99,wxupload 3.5,2013-02-05 13:30:00,
2013-02-05 08:36:00,33.1,11.8,27.11,North,0,0.0,0.0,41,0.00,NA,NA,-99.99,wxupload 3.5,2013-02-05 13:36:00,
2013-02-05 08:41:00,33.1,11.8,27.11,North,0,0.0,0.0,41,0.00,NA,NA,-99.99,wxupload 3.5,2013-02-05 13:41:00,
2013-02-05 08:48:00,33.3,12.0,27.11,North,0,0.0,0.0,41,0.00,NA,NA,-99.99,wxupload 3.5,2013-02-05 13:48:00,
2013-02-05 08:53:00,33.4,12.2,27.11,North,0,0.0,0.0,41,0.00,NA,NA,-99.99,wxupload 3.5,2013-02-05 13:53:00,
2013-02-05 09:00:00,33.6,12.3,27.11,North,0,0.0,0.0,41,0.00,NA,NA,-99.99,wxupload 3.5,2013-02-05 14:00:00,
2013-02-05 09:06:00,33.6,12.3,27.14,North,0,0.0,0.0,41,0.00,NA,NA,-99.99,wxupload 3.5,2013-02-05 14:06:00,
2013-02-05 09:12:00,33.6,12.3,27.14,North,0,0.0,0.0,41,0.00,NA,NA,-99.99,wxupload 3.5,2013-02-05 14:12:00,
2013-02-05 09:18:00,33.6,12.3,27.14,North,0,0.0,0.0,41,0.00,NA,NA,-99.99,wxupload 3.5,2013-02-05 14:18:00,
2013-02-05 09:23:00,33.4,12.2,27.14,North,0,0.0,0.0,41,0.00,NA,NA,-99.99,wxupload 3.5,2013-02-05 14:23:00,
2013-02-05 09:30:00,33.4,12.2,27.14,North,0,0.0,0.0,41,0.00,NA,NA,-99.99,wxupload 3.5,2013-02-05 14:30:00,
2013-02-05 09:35:00,33.3,12.0,27.14,North,0,0.0,0.0,41,0.00,NA,NA,-99.99,wxupload 3.5,2013-02-05 14:35:00,
2013-02-05 09:42:00,33.3,12.0,27.14,North,0,0.0,0.0,41,0.00,NA,NA,-99.99,wxupload 3.5,2013-02-05 14:42:00,
2013-02-05 09:47:00,33.8,11.9,27.14,North,0,0.0,0.0,40,0.00,NA,NA,-99.99,wxupload 3.5,2013-02-05 14:47:00,
2013-02-05 09:54:00,34.3,13.0,27.14,North,0,0.0,0.0,41,0.00,NA,NA,-99.99,wxupload 3.5,2013-02-05 14:54:00,
2013-02-05 10:00:00,34.5,12.6,27.14,North,0,0.0,0.0,40,0.00,NA,NA,-99.99,wxupload 3.5,2013-02-05 15:00:00,
2013-02-05 10:05:00,34.5,12.0,27.14,North,0,0.0,0.0,39,0.00,NA,NA,-99.99,wxupload 3.5,2013-02-05 15:05:00,
2013-02-05 10:12:00,34.3,10.6,27.14,North,0,0.0,0.0,37,0.00,NA,NA,-99.99,wxupload 3.5,2013-02-05 15:12:00,
2013-02-05 10:17:00,34.3,10.6,27.14,North,0,0.0,0.0,37,0.00,NA,NA,-99.99,wxupload 3.5,2013-02-05 15:17:00,
2013-02-05 10:24:00,34.3,10.6,27.14,North,0,0.0,0.0,37,0.00,NA,NA,-99.99,wxupload 3.5,2013-02-05 15:24:00,
2013-02-05 10:29:00,34.3,10.0,27.14,North,0,0.0,0.0,36,0.00,NA,NA,-99.99,wxupload 3.5,2013-02-05 15:29:00,
2013-02-05 10:36:00,34.3,9.4,27.14,North,0,0.0,0.0,35,0.00,NA,NA,-99.99,wxupload 3.5,2013-02-05 15:36:00,
2013-02-05 10:42:00,34.7,9.7,27.14,North,0,0.0,0.0,35,0.00,NA,NA,-99.99,wxupload 3.5,2013-02-05 15:42:00,
2013-02-05 10:48:00,35.1,10.0,27.14,North,0,0.0,0.0,35,0.00,NA,NA,-99.99,wxupload 3.5,2013-02-05 15:48:00,
2013-02-05 10:54:00,35.4,9.7,27.14,North,0,0.0,0.0,34,0.00,NA,NA,-99.99,wxupload 3.5,2013-02-05 15:54:00,
2013-02-05 10:59:00,35.6,8.5,27.14,North,0,0.0,0.0,32,0.00,NA,NA,-99.99,wxupload 3.5,2013-02-05 15:59:00,
2013-02-05 11:06:00,36.0,8.1,27.14,North,0,0.0,0.0,31,0.00,NA,NA,-99.99,wxupload 3.5,2013-02-05 16:06:00,
2013-02-05 11:11:00,35.8,7.2,27.14,North,0,0.0,0.0,30,0.00,NA,NA,-99.99,wxupload 3.5,2013-02-05 16:11:00,
2013-02-05 11:18:00,36.0,7.4,27.14,North,0,0.0,0.0,30,0.00,NA,NA,-99.99,wxupload 3.5,2013-02-05 16:18:00,
2013-02-05 11:23:00,36.0,7.4,27.14,North,0,0.0,0.0,30,0.00,NA,NA,-99.99,wxupload 3.5,2013-02-05 16:23:00,
2013-02-05 11:30:00,36.3,7.7,27.14,North,0,0.0,0.0,30,0.00,NA,NA,-99.99,wxupload 3.5,2013-02-05 16:30:00,
2013-02-05 11:36:00,36.5,7.1,27.14,North,0,0.0,0.0,29,0.00,NA,NA,-99.99,wxupload 3.5,2013-02-05 16:36:00,
2013-02-05 11:42:00,36.5,7.9,27.14,North,0,0.0,0.0,30,0.00,NA,NA,-99.99,wxupload 3.5,2013-02-05 16:42:00,
2013-02-05 11:48:00,36.1,6.8,27.14,North,0,0.0,0.0,29,0.00,NA,NA,-99.99,wxupload 3.5,2013-02-05 16:48:00,
2013-02-05 11:53:00,35.8,6.5,27.11,North,0,0.0,0.0,29,0.00,NA,NA,-99.99,wxupload 3.5,2013-02-05 16:53:00,
2013-02-05 12:00:00,35.4,6.9,27.11,North,0,0.0,0.0,30,0.00,NA,NA,-99.99,wxupload 3.5,2013-02-05 17:00:00,
2013-02-05 12:05:00,35.2,6.7,27.11,North,0,0.0,0.0,30,0.00,NA,NA,-99.99,wxupload 3.5,2013-02-05 17:05:00,
2013-02-05 12:12:00,35.1,6.6,27.11,North,0,0.0,0.0,30,0.00,NA,NA,-99.99,wxupload 3.5,2013-02-05 17:12:00,
2013-02-05 12:17:00,35.1,6.6,27.11,North,0,0.0,0.0,30,0.00,NA,NA,-99.99,wxupload 3.5,2013-02-05 17:17:00,
2013-02-05 12:24:00,35.1,7.3,27.11,North,0,0.0,0.0,31,0.00,NA,NA,-99.99,wxupload 3.5,2013-02-05 17:24:00,
2013-02-05 12:30:00,35.4,7.6,27.11,North,0,0.0,0.0,31,0.00,NA,NA,-99.99,wxupload 3.5,2013-02-05 17:30:00,
2013-02-05 12:36:00,35.4,7.6,27.08,North,0,0.0,0.0,31,0.00,NA,NA,-99.99,wxupload 3.5,2013-02-05 17:36:00,
2013-02-05 12:42:00,35.6,7.1,27.08,North,0,0.0,0.0,30,0.00,NA,NA,-99.99,wxupload 3.5,2013-02-05 17:42:00,
2013-02-05 12:47:00,36.0,7.4,27.08,North,0,0.0,0.0,30,0.00,NA,NA,-99.99,wxupload 3.5,2013-02-05 17:47:00,
2013-02-05 12:54:00,36.0,5.0,27.08,North,0,0.0,0.0,27,0.00,NA,NA,-99.99,wxupload 3.5,2013-02-05 17:54:00,
2013-02-05 12:59:00,35.8,4.9,27.08,North,0,0.0,0.0,27,0.00,NA,NA,-99.99,wxupload 3.5,2013-02-05 17:59:00,
2013-02-05 13:06:00,36.0,5.0,27.08,North,0,0.0,0.0,27,0.00,NA,NA,-99.99,wxupload 3.5,2013-02-05 18:06:00,
2013-02-05 13:11:00,36.3,2.7,27.08,North,0,0.0,0.0,24,0.00,NA,NA,-99.99,wxupload 3.5,2013-02-05 18:11:00,
2013-02-05 13:18:00,36.7,3.1,27.08,North,0,0.0,0.0,24,0.00,NA,NA,-99.99,wxupload 3.5,2013-02-05 18:18:00,
2013-02-05 13:24:00,36.9,3.2,27.08,North,0,0.0,0.0,24,0.00,NA,NA,-99.99,wxupload 3.5,2013-02-05 18:24:00,
2013-02-05 13:29:00,36.9,5.8,27.08,North,0,0.0,0.0,27,0.00,NA,NA,-99.99,wxupload 3.5,2013-02-05 18:29:00,
2013-02-05 13:36:00,36.9,5.8,27.08,North,0,0.0,0.0,27,0.00,NA,NA,-99.99,wxupload 3.5,2013-02-05 18:36:00,
2013-02-05 13:41:00,36.9,7.4,27.08,North,0,0.0,0.0,29,0.00,NA,NA,-99.99,wxupload 3.5,2013-02-05 18:41:00,
2013-02-05 13:48:00,36.7,5.7,27.08,North,0,0.0,0.0,27,0.00,NA,NA,-99.99,wxupload 3.5,2013-02-05 18:48:00,
2013-02-05 13:53:00,36.5,5.5,27.08,North,0,0.0,0.0,27,0.00,NA,NA,-99.99,wxupload 3.5,2013-02-05 18:53:00,
2013-02-05 14:00:00,36.5,7.1,27.08,North,0,0.0,0.0,29,0.00,NA,NA,-99.99,wxupload 3.5,2013-02-05 19:00:00,
2013-02-05 14:05:00,36.3,6.9,27.08,North,0,0.0,0.0,29,0.00,NA,NA,-99.99,wxupload 3.5,2013-02-05 19:05:00,
2013-02-05 14:12:00,36.3,6.9,27.08,North,0,0.0,0.0,29,0.00,NA,NA,-99.99,wxupload 3.5,2013-02-05 19:12:00,
2013-02-05 14:18:00,36.1,6.8,27.08,North,0,0.0,0.0,29,0.00,NA,NA,-99.99,wxupload 3.5,2013-02-05 19:18:00,
2013-02-05 14:23:00,35.8,6.5,27.08,North,0,0.0,0.0,29,0.00,NA,NA,-99.99,wxupload 3.5,2013-02-05 19:23:00,
2013-02-05 14:30:00,35.8,7.2,27.08,North,0,0.0,0.0,30,0.00,NA,NA,-99.99,wxupload 3.5,2013-02-05 19:30:00,
2013-02-05 14:35:00,35.8,7.2,27.08,North,0,0.0,0.0,30,0.00,NA,NA,-99.99,wxupload 3.5,2013-02-05 19:35:00,
2013-02-05 14:42:00,35.6,7.1,27.08,North,0,0.0,0.0,30,0.00,NA,NA,-99.99,wxupload 3.5,2013-02-05 19:42:00,
2013-02-05 14:47:00,35.4,6.9,27.08,North,0,0.0,0.0,30,0.00,NA,NA,-99.99,wxupload 3.5,2013-02-05 19:47:00,
2013-02-05 14:54:00,35.2,7.5,27.08,North,0,0.0,0.0,31,0.00,NA,NA,-99.99,wxupload 3.5,2013-02-05 19:54:00,
2013-02-05 15:00:00,35.2,7.5,27.08,North,0,0.0,0.0,31,0.00,NA,NA,-99.99,wxupload 3.5,2013-02-05 20:00:00,
2013-02-05 15:06:00,35.2,7.5,27.08,North,0,0.0,0.0,31,0.00,NA,NA,-99.99,wxupload 3.5,2013-02-05 20:06:00,
2013-02-05 15:12:00,35.4,8.3,27.08,North,0,0.0,0.0,32,0.00,NA,NA,-99.99,wxupload 3.5,2013-02-05 20:12:00,
2013-02-05 15:17:00,35.4,9.0,27.08,North,0,0.0,0.0,33,0.00,NA,NA,-99.99,wxupload 3.5,2013-02-05 20:17:00,
2013-02-05 15:24:00,35.6,9.2,27.08,North,0,0.0,0.0,33,0.00,NA,NA,-99.99,wxupload 3.5,2013-02-05 20:24:00,
2013-02-05 15:29:00,35.6,9.2,27.08,North,0,0.0,0.0,33,0.00,NA,NA,-99.99,wxupload 3.5,2013-02-05 20:29:00,
2013-02-05 15:36:00,35.4,9.7,27.08,North,0,0.0,0.0,34,0.00,NA,NA,-99.99,wxupload 3.5,2013-02-05 20:36:00,
2013-02-05 15:41:00,35.4,9.7,27.08,North,0,0.0,0.0,34,0.00,NA,NA,-99.99,wxupload 3.5,2013-02-05 20:41:00,
2013-02-05 15:48:00,35.6,9.9,27.08,North,0,0.0,0.0,34,0.00,NA,NA,-99.99,wxupload 3.5,2013-02-05 20:48:00,
2013-02-05 15:54:00,35.8,10.7,27.08,North,0,0.0,0.0,35,0.00,NA,NA,-99.99,wxupload 3.5,2013-02-05 20:54:00,
2013-02-05 16:00:00,35.8,11.3,27.08,North,0,0.0,0.0,36,0.00,NA,NA,-99.99,wxupload 3.5,2013-02-05 21:00:00,
2013-02-05 16:06:00,35.8,11.3,27.08,North,0,0.0,0.0,36,0.00,NA,NA,-99.99,wxupload 3.5,2013-02-05 21:06:00,
2013-02-05 16:11:00,35.8,12.0,27.08,North,0,0.0,0.0,37,0.00,NA,NA,-99.99,wxupload 3.5,2013-02-05 21:11:00,
2013-02-05 16:18:00,35.8,12.6,27.08,North,0,0.0,0.0,38,0.00,NA,NA,-99.99,wxupload 3.5,2013-02-05 21:18:00,
2013-02-05 16:23:00,35.8,12.6,27.08,North,0,0.0,0.0,38,0.00,NA,NA,-99.99,wxupload 3.5,2013-02-05 21:23:00,
2013-02-05 16:30:00,35.8,13.2,27.08,North,0,0.0,0.0,39,0.00,NA,NA,-99.99,wxupload 3.5,2013-02-05 21:30:00,
2013-02-05 16:35:00,35.8,13.2,27.08,North,0,0.0,0.0,39,0.00,NA,NA,-99.99,wxupload 3.5,2013-02-05 21:35:00,
2013-02-05 16:42:00,35.6,13.0,27.08,North,0,0.0,0.0,39,0.00,NA,NA,-99.99,wxupload 3.5,2013-02-05 21:42:00,
2013-02-05 16:47:00,35.4,12.8,27.08,North,0,0.0,0.0,39,0.00,NA,NA,-99.99,wxupload 3.5,2013-02-05 21:47:00,
2013-02-05 16:54:00,35.4,12.8,27.08,North,0,0.0,0.0,39,0.00,NA,NA,-99.99,wxupload 3.5,2013-02-05 21:54:00,
2013-02-05 17:00:00,35.4,12.8,27.08,North,0,0.0,0.0,39,0.00,NA,NA,-99.99,wxupload 3.5,2013-02-05 22:00:00,
2013-02-05 17:05:00,35.4,12.2,27.08,North,0,0.0,0.0,38,0.00,NA,NA,-99.99,wxupload 3.5,2013-02-05 22:05:00,
2013-02-05 17:12:00,35.2,11.5,27.08,North,0,0.0,0.0,37,0.00,NA,NA,-99.99,wxupload 3.5,2013-02-05 22:12:00,
2013-02-05 17:17:00,35.1,11.3,27.08,North,0,0.0,0.0,37,0.00,NA,NA,-99.99,wxupload 3.5,2013-02-05 22:17:00,
2013-02-05 17:24:00,35.1,10.7,27.08,North,0,0.0,0.0,36,0.00,NA,NA,-99.99,wxupload 3.5,2013-02-05 22:24:00,
2013-02-05 17:29:00,34.9,9.9,27.08,North,0,0.0,0.0,35,0.00,NA,NA,-99.99,wxupload 3.5,2013-02-05 22:29:00,
2013-02-05 17:36:00,34.5,8.9,27.08,North,0,0.0,0.0,34,0.00,NA,NA,-99.99,wxupload 3.5,2013-02-05 22:36:00,
2013-02-05 17:41:00,34.5,8.9,27.08,North,0,0.0,0.0,34,0.00,NA,NA,-99.99,wxupload 3.5,2013-02-05 22:41:00,
2013-02-05 17:48:00,34.3,8.7,27.08,North,0,0.0,0.0,34,0.00,NA,NA,-99.99,wxupload 3.5,2013-02-05 22:48:00,
2013-02-05 17:54:00,34.2,7.2,27.08,North,0,0.0,0.0,32,0.00,NA,NA,-99.99,wxupload 3.5,2013-02-05 22:54:00,
2013-02-05 18:00:00,34.2,7.2,27.08,North,0,0.0,0.0,32,0.00,NA,NA,-99.99,wxupload 3.5,2013-02-05 23:00:00,
2013-02-05 18:06:00,34.2,5.8,27.08,North,0,0.0,0.0,30,0.00,NA,NA,-99.99,wxupload 3.5,2013-02-05 23:06:00,
2013-02-05 18:11:00,34.2,5.8,27.08,North,0,0.0,0.0,30,0.00,NA,NA,-99.99,wxupload 3.5,2013-02-05 23:11:00,
2013-02-05 18:18:00,34.0,5.6,27.08,North,0,0.0,0.0,30,0.00,NA,NA,-99.99,wxupload 3.5,2013-02-05 23:18:00,
2013-02-05 18:23:00,34.0,3.3,27.11,North,0,0.0,0.0,27,0.00,NA,NA,-99.99,wxupload 3.5,2013-02-05 23:23:00,
2013-02-05 18:30:00,34.0,-1.2,27.11,North,0,0.0,0.0,22,0.00,NA,NA,-99.99,wxupload 3.5,2013-02-05 23:30:00,
2013-02-05 18:35:00,34.2,-1.0,27.11,North,0,0.0,0.0,22,0.00,NA,NA,-99.99,wxupload 3.5,2013-02-05 23:35:00,
2013-02-05 18:42:00,34.0,-1.2,27.11,North,0,0.0,0.0,22,0.00,NA,NA,-99.99,wxupload 3.5,2013-02-05 23:42:00,
2013-02-05 18:47:00,34.0,-1.2,27.11,North,0,0.0,0.0,22,0.00,NA,NA,-99.99,wxupload 3.5,2013-02-05 23:47:00,
2013-02-05 18:54:00,34.0,-3.2,27.11,North,0,0.0,0.0,20,0.00,NA,NA,-99.99,wxupload 3.5,2013-02-05 23:54:00,
2013-02-05 19:00:00,34.0,-3.2,27.11,North,0,0.0,0.0,20,0.00,NA,NA,-99.99,wxupload 3.5,2013-02-06 00:00:00,
2013-02-05 19:05:00,33.8,-3.4,27.11,North,0,0.0,0.0,20,0.00,NA,NA,-99.99,wxupload 3.5,2013-02-06 00:05:00,
2013-02-05 19:12:00,33.8,-3.4,27.11,North,0,0.0,0.0,20,0.00,NA,NA,-99.99,wxupload 3.5,2013-02-06 00:12:00,
2013-02-05 19:17:00,33.6,-3.5,27.11,North,0,0.0,0.0,20,0.00,NA,NA,-99.99,wxupload 3.5,2013-02-06 00:17:00,
2013-02-05 19:24:00,33.6,-3.5,27.11,North,0,0.0,0.0,20,0.00,NA,NA,-99.99,wxupload 3.5,2013-02-06 00:24:00,
2013-02-05 19:29:00,33.6,-3.5,27.11,North,0,0.0,0.0,20,0.00,NA,NA,-99.99,wxupload 3.5,2013-02-06 00:29:00,
2013-02-05 19:36:00,33.6,-3.5,27.11,North,0,0.0,0.0,20,0.00,NA,NA,-99.99,wxupload 3.5,2013-02-06 00:36:00,
2013-02-05 19:41:00,33.6,-3.5,27.11,North,0,0.0,0.0,20,0.00,NA,NA,-99.99,wxupload 3.5,2013-02-06 00:41:00,
2013-02-05 19:48:00,33.6,-3.5,27.11,North,0,0.0,0.0,20,0.00,NA,NA,-99.99,wxupload 3.5,2013-02-06 00:48:00,
2013-02-05 19:54:00,33.6,-3.5,27.11,North,0,0.0,0.0,20,0.00,NA,NA,-99.99,wxupload 3.5,2013-02-06 00:54:00,
2013-02-05 20:00:00,33.4,-3.7,27.11,North,0,0.0,0.0,20,0.00,NA,NA,-99.99,wxupload 3.5,2013-02-06 01:00:00,
2013-02-05 20:06:00,33.4,-3.7,27.11,North,0,0.0,0.0,20,0.00,NA,NA,-99.99,wxupload 3.5,2013-02-06 01:06:00,
2013-02-05 20:11:00,33.4,-3.7,27.11,North,0,0.0,0.0,20,0.00,NA,NA,-99.99,wxupload 3.5,2013-02-06 01:11:00,
2013-02-05 20:18:00,33.4,-3.7,27.11,North,0,0.0,0.0,20,0.00,NA,NA,-99.99,wxupload 3.5,2013-02-06 01:18:00,
2013-02-05 20:23:00,33.6,-3.5,27.11,North,0,0.0,0.0,20,0.00,NA,NA,-99.99,wxupload 3.5,2013-02-06 01:23:00,
2013-02-05 20:30:00,33.4,-3.7,27.11,North,0,0.0,0.0,20,0.00,NA,NA,-99.99,wxupload 3.5,2013-02-06 01:30:00,
2013-02-05 20:35:00,33.6,-3.5,27.11,North,0,0.0,0.0,20,0.00,NA,NA,-99.99,wxupload 3.5,2013-02-06 01:35:00,
2013-02-05 20:42:00,33.6,-3.5,27.11,North,0,0.0,0.0,20,0.00,NA,NA,-99.99,wxupload 3.5,2013-02-06 01:42:00,
2013-02-05 20:47:00,33.6,-3.5,27.11,North,0,0.0,0.0,20,0.00,NA,NA,-99.99,wxupload 3.5,2013-02-06 01:47:00,
2013-02-05 20:54:00,33.6,-3.5,27.14,North,0,0.0,0.0,20,0.00,NA,NA,-99.99,wxupload 3.5,2013-02-06 01:54:00,
2013-02-05 21:00:00,33.6,-3.5,27.14,North,0,0.0,0.0,20,0.00,NA,NA,-99.99,wxupload 3.5,2013-02-06 02:00:00,
2013-02-05 21:05:00,33.6,-3.5,27.14,North,0,0.0,0.0,20,0.00,NA,NA,-99.99,wxupload 3.5,2013-02-06 02:05:00,
2013-02-05 21:12:00,33.6,-3.5,27.14,North,0,0.0,0.0,20,0.00,NA,NA,-99.99,wxupload 3.5,2013-02-06 02:12:00,
2013-02-05 21:17:00,33.6,-3.5,27.14,North,0,0.0,0.0,20,0.00,NA,NA,-99.99,wxupload 3.5,2013-02-06 02:17:00,
2013-02-05 21:24:00,33.6,-3.5,27.14,North,0,0.0,0.0,20,0.00,NA,NA,-99.99,wxupload 3.5,2013-02-06 02:24:00,
2013-02-05 21:29:00,33.6,-3.5,27.14,North,0,0.0,0.0,20,0.00,NA,NA,-99.99,wxupload 3.5,2013-02-06 02:29:00,
2013-02-05 21:36:00,33.6,-3.5,27.14,North,0,0.0,0.0,20,0.00,NA,NA,-99.99,wxupload 3.5,2013-02-06 02:36:00,
2013-02-05 21:41:00,33.6,-3.5,27.14,North,0,0.0,0.0,20,0.00,NA,NA,-99.99,wxupload 3.5,2013-02-06 02:41:00,
2013-02-05 21:48:00,33.6,-0.5,27.14,North,0,0.0,0.0,23,0.00,NA,NA,-99.99,wxupload 3.5,2013-02-06 02:48:00,
2013-02-05 21:53:00,33.6,-0.5,27.14,North,0,0.0,0.0,23,0.00,NA,NA,-99.99,wxupload 3.5,2013-02-06 02:53:00,
2013-02-05 22:00:00,33.6,-0.5,27.14,North,0,0.0,0.0,23,0.00,NA,NA,-99.99,wxupload 3.5,2013-02-06 03:00:00,
2013-02-05 22:06:00,33.6,1.3,27.14,North,0,0.0,0.0,25,0.00,NA,NA,-99.99,wxupload 3.5,2013-02-06 03:06:00,
2013-02-05 22:11:00,33.6,1.3,27.14,North,0,0.0,0.0,25,0.00,NA,NA,-99.99,wxupload 3.5,2013-02-06 03:11:00,
2013-02-05 22:18:00,33.4,3.6,27.14,North,0,0.0,0.0,28,0.00,NA,NA,-99.99,wxupload 3.5,2013-02-06 03:18:00,
2013-02-05 22:23:00,33.4,5.1,27.14,North,0,0.0,0.0,30,0.00,NA,NA,-99.99,wxupload 3.5,2013-02-06 03:23:00,
2013-02-05 22:30:00,33.3,5.0,27.14,North,0,0.0,0.0,30,0.00,NA,NA,-99.99,wxupload 3.5,2013-02-06 03:30:00,
2013-02-05 22:35:00,33.3,5.0,27.14,North,0,0.0,0.0,30,0.00,NA,NA,-99.99,wxupload 3.5,2013-02-06 03:35:00,
2013-02-05 22:42:00,33.3,5.0,27.14,North,0,0.0,0.0,30,0.00,NA,NA,-99.99,wxupload 3.5,2013-02-06 03:42:00,
2013-02-05 22:47:00,33.3,5.7,27.14,North,0,0.0,0.0,31,0.00,NA,NA,-99.99,wxupload 3.5,2013-02-06 03:47:00,
2013-02-05 22:54:00,33.3,5.7,27.17,North,0,0.0,0.0,31,0.00,NA,NA,-99.99,wxupload 3.5,2013-02-06 03:54:00,
2013-02-05 22:59:00,33.1,6.3,27.17,North,0,0.0,0.0,32,0.00,NA,NA,-99.99,wxupload 3.5,2013-02-06 03:59:00,
2013-02-05 23:06:00,33.1,6.3,27.17,North,0,0.0,0.0,32,0.00,NA,NA,-99.99,wxupload 3.5,2013-02-06 04:06:00,
2013-02-05 23:12:00,33.3,6.4,27.17,North,0,0.0,0.0,32,0.00,NA,NA,-99.99,wxupload 3.5,2013-02-06 04:12:00,
2013-02-05 23:18:00,33.1,6.3,27.17,North,0,0.0,0.0,32,0.00,NA,NA,-99.99,wxupload 3.5,2013-02-06 04:18:00,
2013-02-05 23:24:00,33.1,7.6,27.14,North,0,0.0,0.0,34,0.00,NA,NA,-99.99,wxupload 3.5,2013-02-06 04:24:00,
2013-02-05 23:29:00,33.1,7.6,27.14,North,0,0.0,0.0,34,0.00,NA,NA,-99.99,wxupload 3.5,2013-02-06 04:29:00,
2013-02-05 23:36:00,33.1,7.6,27.14,North,0,0.0,0.0,34,0.00,NA,NA,-99.99,wxupload 3.5,2013-02-06 04:36:00,
2013-02-05 23:41:00,32.9,8.1,27.14,North,0,0.0,0.0,35,0.00,NA,NA,-99.99,wxupload 3.5,2013-02-06 04:41:00,
2013-02-05 23:48:00,32.9,8.7,27.14,North,0,0.0,0.0,36,0.00,NA,NA,-99.99,wxupload 3.5,2013-02-06 04:48:00,
2013-02-05 23:53:00,32.9,8.7,27.17,North,0,0.0,0.0,36,0.00,NA,NA,-99.99,wxupload 3.5,2013-02-06 04:53:00,